Regional Weather Roundup
Issued by NWS

Home | Current Version | Previous Version | Graphics & Text | Print | Product List | Glossary On
Versions: 1 2 3 4 5 6 7 8 9 10 11 12 13 14 15 16 17 18 19 20 21 22 23 24 25 26 27 28 29 30 31 32 33 34 35 36 37 38 39 40 41 42 43 44 45 46 47 48 49 50
000
ASUS45 KBOU 170407
RWRCO

WEATHER ROUNDUP FOR COLORADO
NATIONAL WEATHER SERVICE DENVER/BOULDER CO
900 PM MST TUE DEC 16 2014

NOTE: "FAIR" INDICATES FEW OR NO CLOUDS BELOW 12000 FEET WITH NO
SIGNIFICANT WEATHER AND/OR OBSTRUCTIONS TO VISIBILITY.

COZ001>005-013-030-031-170500-
...NORTHWEST COLORADO...

CITY           SKY/WX    TMP DP  RH WIND       PRES   REMARKS
CRAIG          CLOUDY    18  15  88 CALM      30.07S
HAYDEN         CLOUDY    25  19  80 E10       30.05S WCI  15
MEEKER         CLOUDY    21  18  88 CALM      30.05F
MOUNT WERNER   NOT AVBL
STEAMBOAT SPGS MOCLDY    20  19  96 CALM      30.06R
WALDEN         PTCLDY    16  12  86 SE5       30.03F WCI   9
$$

COZ006>008-011-170500-
...WEST CENTRAL VALLEYS...

CITY           SKY/WX    TMP DP  RH WIND       PRES   REMARKS
GRAND JUNCTION CLOUDY    32  29  88 CALM      30.05F
MONTROSE       CLOUDY    31  26  82 SE5       30.08S WCI  26
EAGLE          MOCLDY    12  12 100 CALM      30.14S
RIFLE          MOCLDY    26  23  88 SE3       30.08S
DELTA          CLOUDY    35  27  74 CALM      30.07S
NUCLA          CLOUDY    32  28  86 SE6       30.10S WCI  26
$$

COZ017>023-064>068-170500-
...SOUTHWEST COLORADO...

CITY           SKY/WX    TMP DP  RH WIND       PRES   REMARKS
DURANGO        CLOUDY    31  27  85 NE5       30.09F WCI  26
CORTEZ         PTCLDY    34  25  69 NE7       30.06F WCI  28
PAGOSA SPRINGS CLOUDY    28  27  93 CALM      30.12S
TELLURIDE      CLOUDY    32  19  58 E3        30.10S
WOLF CREEK PAS PTCLDY    16  12  86 MISG      30.13S
$$

COZ009-010-012-014-032>034-037-058>063-170500-
...CENTRAL COLORADO...

CITY           SKY/WX    TMP DP  RH WIND       PRES   REMARKS
ASPEN          PTCLDY    20  18  92 VRB5      30.04F WCI  13
BUENA VISTA    PTCLDY    19  11  69 W7        30.07S WCI  10
COPPER MTN     PTCLDY    23  14  68 SW8       30.08F WCI  14
BERTHOUD PASS  MOCLDY    14  10  85 MISG      30.08F HAZE
COTTONWOOD PAS CLOUDY    30  16  55 CALM      30.07F
GUNNISON       MOCLDY    19  12  73 NE5       30.13S WCI  13
KREMMLING      PTCLDY     5   1  85 CALM      30.12S
LEADVILLE      MOCLDY    17  12  80 NE6       30.05F WCI   9
MONARCH PASS   PTCLDY    18  12  79 MISG      30.19S
SALIDA         PTCLDY    35  15  44 SW10      30.13S WCI  27
SUNLIGHT       PTCLDY    23  21  93 CALM      30.09S
WILKERSON PASS PTCLDY    19  12  73 SW12G20   30.08F WCI   7
$$

COZ069>075-170500-
...SAN LUIS VALLEY/SANGRE DE CRISTO MOUNTAINS...

CITY           SKY/WX    TMP DP  RH WIND       PRES   REMARKS
ALAMOSA        MOCLDY    18  14  84 E5        30.10S WCI  11
LA VETA PASS   PTCLDY    27  14  59 S12G21    30.05F WCI  16
SAGUACHE       PTCLDY    19   9  63 NW7       30.12S WCI  10
$$

COZ035-036-038>040-170500-
...NORTHERN COLORADO FRONT RANGE...

CITY           SKY/WX    TMP DP  RH WIND       PRES   REMARKS
DENVER INTL AP PTCLDY    26  20  77 SW6       30.02F WCI  19
DMNS CITY PARK   N/A     27  21  77 CALM      30.04S
AURORA         PTCLDY    24  19  83 S7        30.03F WCI  15
FRONT RANGE AP NOT AVBL
ERIE MUNI ARPT   N/A     23  21  93 CALM      30.05S
BOULDER MUN AP PTCLDY    28  25  86 CALM      30.04S
CENTENNIAL     PTCLDY    22  18  85 CALM      30.02S
BROOMFIELD     NOT AVBL
FORT COLLINS   MOCLDY    25  19  80 CALM      30.06F
LONGMONT       MOCLDY    27  22  81 CALM      30.07S
$$

COZ041-046-047-076>085-087-088-170500-
...PIKES PEAK/PALMER DIVIDE AND SOUTHERN FOOTHILLS...

CITY           SKY/WX    TMP DP  RH WIND       PRES   REMARKS
COLO. SPRINGS  PTCLDY    19  12  74 N3        30.03F
A. F. ACADEMY  CLEAR     19  15  81 N7        30.01F WCI  10
ELLICOTT       NOT AVBL
FALCON         PTCLDY    22  16  79 CALM      30.02S
FORT CARSON    CLEAR     20  15  81 VRB1      30.02F
LIMON          CLEAR     14  13  95 CALM      30.06S
MONUMENT HILL  CLEAR     19  16  86 S3        30.00S
TRINIDAD       PTCLDY    31  25  78 CALM      30.02S
$$

COZ042>045-048>051-090-091-170500-
...NORTHEAST COLORADO...

CITY           SKY/WX    TMP DP  RH WIND       PRES   REMARKS
GREELEY ARPT   MOCLDY    27  18  69 E3        30.05S
AKRON          FOG       21  21 100 SE10      30.07S VSB 3/4 WCI  10
BURLINGTON     CLOUDY    26  19  74 E10       30.11F WCI  16
WRAY           MOCLDY    24  24 100 E9        30.16S WCI  15
STERLING       MOCLDY    27  25  93 CALM      30.11S
HOLYOKE        NOT AVBL
FORT MORGAN    MOCLDY    19  17  89 NE6       30.07S WCI  11
$$

COZ086-089-092>099-170500-
...SOUTHEAST COLORADO...

CITY           SKY/WX    TMP DP  RH WIND       PRES   REMARKS
PUEBLO         NOT AVBL
LA JUNTA       MOCLDY    29  25  85 NW7       30.04F WCI  22
LAMAR          CLOUDY    33  27  78 SW3       30.03S
SPRINGFIELD      N/A     37  25  61 S22G28    30.03F
$$


USA.gov is the U.S. government's official web portal to all federal, state and local government web resources and services.